Location: Palomar Observatory
(33.3560°N, 116.8630°W)
Time: 05:30:14
(UTC-07:00)

Iridium 57 - Visible Passes

Search period start: 23 June 2018 00:00
Search period end: 03 July 2018 00:00
Orbit: 776 x 779 km, 86.4° (Epoch: 22 June)

Date Brightness Start Highest point End Pass type
(mag) Time Alt. Az. Time Alt. Az. Time Alt. Az.
23 Jun 6.8 02:36:12 10° NNE 02:40:56 34° E 02:42:37 28° ESE visible
23 Jun 6.9 04:17:32 10° NW 04:21:20 21° W 04:23:03 18° WSW visible
24 Jun 7.6 02:03:36 10° NE 02:07:07 18° E 02:08:45 16° ESE visible
24 Jun 6.0 03:43:05 10° NNW 03:47:57 40° W 03:49:11 35° WSW visible
25 Jun 5.4 03:09:13 10° N 03:14:26 80° W 03:15:21 61° SSW visible
26 Jun 6.0 02:35:44 10° N 02:40:49 52° E 02:41:31 48° ESE visible
26 Jun 7.3 04:18:22 10° NW 04:20:58 14° W 04:21:58 13° W visible
27 Jun 7.1 02:02:42 10° NNE 02:07:04 26° E 02:07:43 26° E visible
27 Jun 6.6 03:43:18 10° NNW 03:47:39 27° W 03:48:09 27° W visible
28 Jun 7.9 01:30:38 10° NE 01:33:12 14° ENE 01:33:54 13° E visible
28 Jun 5.7 03:09:08 10° NNW 03:14:12 53° W 03:14:21 53° W visible
29 Jun 5.5 02:35:25 10° N 02:40:35 78° ENE 02:40:35 78° ENE visible
30 Jun 6.5 02:02:06 10° NNE 02:06:48 39° E 02:06:48 39° E visible
30 Jun 7.1 03:43:47 10° NW 03:47:15 19° W 03:47:15 19° W visible
01 Jul 7.5 01:29:21 10° NNE 01:33:03 20° ENE 01:33:03 20° ENE visible
01 Jul 6.4 03:09:12 10° NNW 03:13:30 35° WNW 03:13:30 35° WNW visible
02 Jul 5.7 02:35:14 10° N 02:39:45 62° NW 02:39:45 62° NW visible
